RH
81 84 93 82 76 79 52 62 79 77 79 86 79 68 69 83 88 86 82 77 71 46 37 34 27 20 18 18 22 17 16 19 22 29 34 43 45 45 42 41 42 42 44
75 82 91 75 79 67 55 66 73 71 65 67 82 89 86 81 83 89 90 86 84 75 49 41 39 31 24 21 30 36 26 18 21 27 35 43 47 47 44 42 41 42 46
72 89 96 93 86 59 68 75 69 64 76 71 70 71 94 94 85 88 85 87 88 89 82 58 54 43 33 31 26 26 59 56 25 25 32 41 47 47 47 43 41 43 47
66 77 79 82 68 64 63 60 57 52 45 38 42 47 44 54 70 90 92 98 98 94 99 92 66 48 41 48 38 32 25 48 66 61 45 45 47 49 49 44 41 45 51
75 69 75 70 64 61 63 61 58 50 44 51 58 53 48 45 54 77 77 94 98 92 95 94 92 71 51 52 63 46 36 29 52 80 78 56 47 48 49 44 41 46 56
79 80 76 71 74 68 64 60 56 50 47 49 48 45 43 39 38 60 87 71 68 80 92 95 94 97 90 67 69 57 59 42 36 36 58 70 61 47 46 40 40 48 61
81 90 89 81 80 78 68 63 63 59 52 52 51 45 40 36 32 30 46 74 58 49 57 64 78 82 84 90 85 63 77 54 46 43 40 44 58 62 51 39 43 50 65
75 94 94 91 84 80 70 70 64 58 58 55 52 45 34 28 29 28 25 41 54 60 59 58 57 77 81 90 98 70 83 85 56 46 50 52 46 60 66 62 64 58 71
80 98 100 100 96 90 82 73 66 63 60 58 54 49 45 37 38 35 32 35 70 74 74 72 78 75 70 78 84 91 87 87 64 54 53 58 58 49 62 78 73 72 77
86 97 90 99 98 94 83 76 68 65 60 52 35 33 41 51 64 54 53 44 49 58 73 79 82 87 73 73 83 83 92 93 87 79 57 69 63 68 70 72 76 79 82
100 100 94 91 91 87 78 73 68 64 55 48 42 40 48 61 61 63 58 60 69 62 66 79 76 82 96 96 96 97 99 100 98 87 81 76 72 67 86 81 96 91 89
99 97 99 98 90 85 78 71 62 54 51 46 70 66 78 79 64 67 70 70 71 70 68 70 77 81 88 98 100 92 95 100 99 94 98 88 86 81 76 82 99 97 99
87 81 78 72 72 76 79 67 68 85 96 98 97 95 95 97 92 90 76 75 83 80 92 77 91 92 96 99 100 100 99 98 98 98 96 96 96 93 82 84 98 100 100
70 70 68 65 77 68 66 95 93 82 81 95 99 98 100 100 99 85 91 99 100 97 92 90 98 100 100 98 100 98 100 98 99 100 100 99 98 97 93 96 96 95 98
98 99 99 100 99 99 97 97 89 76 50 78 99 100 100 100 99 100 98 100 99 100 95 100 97 98 99 100 98 96 99 100 98 99 100 100 100 100 98 100 99 100 98
93 97 96 78 41 39 34 34 32 28 21 18 24 77 99 99 99 99 99 100 99 97 100 99 100 100 100 99 100 100 99 100 100 99 100 100 100 100 99 99 98 98 100
20 19 18 16 14 13 12 12 12 12 12 12 11 11 17 66 98 99 99 99 99 99 99 100 100 100 99 100 99 99 100 99 100 100 100 100 100 100 99 99 99 100 93
12 12 12 13 14 14 14 13 13 12 11 10 9 10 11 12 11 10 16 39 98 99 99 99 99 100 100 98 99 100 100 100 100 99 100 100 100 100 100 97 93 95 99
15 15 15 14 14 13 12 11 9 7 6 5 4 4 4 4 5 8 11 12 12 23 81 94 100 99 100 100 100 100 99 99 100 100 100 100 100 99 100 100 99 100 100
16 16 15 15 14 13 12 10 7 7 8 9 8 7 6 5 5 4 4 4 6 10 12 12 15 21 72 95 99 99 99 99 99 100 100 100 100 100 100 100 100 100 100
17 16 16 14 13 13 14 18 21 25 24 19 13 11 9 8 7 6 5 4 4 4 4 4 8 12 13 17 43 93 99 99 99 100 100 100 99 99 100 100 99 100 96
20 29 36 38 36 32 31 30 28 24 19 16 15 10 9 8 8 8 7 6 6 5 5 4 4 4 5 9 14 19 26 51 96 99 99 99 100 100 100 99 98 92 93
41 44 39 38 37 32 25 16 11 10 9 9 8 8 8 8 8 8 8 8 8 8 7 6 5 5 4 4 4 6 10 15 20 34 62 70 65 82 98 98 100 97 93
43 42 41 29 15 11 10 9 9 8 8 9 8 8 8 8 8 8 8 8 8 10 9 9 8 7 6 6 5 4 4 4 6 10 14 20 37 45 46 57 99 100 99
45 29 15 12 10 10 9 10 9 8 7 7 8 10 10 10 12 13 15 13 10 11 13 12 11 10 10 8 7 6 6 4 4 4 4 7 10 17 36 44 52 73 98
24 14 11 10 10 12 12 10 10 10 10 9 8 8 9 12 15 20 28 30 22 16 14 15 18 17 16 14 13 12 9 8 7 5 5 4 4 6 12 23 44 52 96
Wind_Speed
31 30 31 27 25 25 22 23 20 23 21 24 24 24 23 23 23 24 24 24 23 22 22 21 20 20 20 19 19 18 17 16 15 15 15 15 13 12 11 10 10 10 10
33 32 32 29 32 27 26 26 27 25 24 24 26 25 25 26 25 26 26 27 26 26 24 23 23 23 21 22 20 20 19 18 17 17 18 18 17 16 14 14 13 13 13
35 35 36 35 33 31 30 30 27 27 26 26 26 29 26 26 28 31 29 28 27 29 28 27 26 28 25 23 24 23 23 21 21 20 21 21 21 20 18 17 16 15 15
36 37 39 37 32 32 31 31 30 29 29 26 27 28 30 31 31 33 34 33 29 32 33 32 33 31 28 28 26 26 27 26 25 24 24 23 23 23 22 20 19 18 16
39 37 36 35 33 34 34 34 34 33 31 30 32 33 34 36 36 37 38 39 38 39 38 38 35 34 35 34 32 30 29 29 29 27 26 26 25 25 25 24 22 21 19
41 39 39 36 37 37 36 35 34 35 34 34 36 40 42 41 41 42 42 43 45 46 43 42 40 40 40 40 37 36 32 32 32 32 31 30 29 28 26 25 25 23 20
43 42 40 40 40 36 35 35 37 40 40 40 45 45 46 46 47 45 45 46 47 50 50 49 47 46 41 39 42 40 33 36 35 32 32 33 32 31 29 28 27 26 23
38 41 39 37 36 36 36 37 38 41 44 45 47 47 51 52 50 46 45 47 47 46 47 47 49 48 49 43 41 43 43 41 39 36 34 34 36 34 31 31 29 27 25
35 37 34 36 34 34 36 37 39 43 48 48 51 52 53 52 50 47 44 44 41 42 43 43 43 45 47 46 43 44 51 43 40 42 38 36 36 38 35 32 32 30 29
32 31 39 39 36 36 38 40 44 47 49 52 52 51 51 51 51 52 49 48 46 44 41 42 42 42 42 43 43 45 49 47 45 43 44 40 41 38 38 36 36 35 34
32 31 35 40 38 35 40 43 46 49 53 54 52 49 48 47 49 51 53 51 49 46 43 40 41 40 37 37 41 43 50 51 50 47 50 43 44 47 39 42 42 41 39
25 23 25 28 33 38 41 44 48 52 54 52 47 47 47 45 50 51 53 53 53 51 48 45 44 42 40 43 40 40 43 50 46 51 47 51 52 53 47 47 41 40 40
30 23 27 32 36 38 39 42 41 45 39 37 35 35 41 47 45 48 53 55 55 51 52 49 46 41 41 38 38 34 38 44 54 57 56 55 55 51 55 51 46 41 39
25 28 31 35 36 36 38 32 29 29 36 38 29 31 35 51 51 53 58 44 51 45 48 44 41 42 43 40 35 38 35 46 46 45 48 51 60 58 60 58 57 56 49
22 27 26 22 19 17 21 28 29 27 31 30 41 37 44 38 33 35 35 41 43 26 28 31 37 29 36 33 32 36 38 36 38 39 48 52 53 59 51 53 58 43 40
12 12 13 18 22 23 24 25 29 30 32 32 32 33 38 32 22 21 35 26 28 30 31 34 30 27 29 29 41 44 47 48 40 42 42 49 51 47 50 60 61 49 48
17 18 20 23 24 26 27 29 30 31 31 31 31 31 30 28 28 30 30 29 35 34 35 34 33 32 33 35 36 43 50 50 44 50 48 46 45 47 49 51 51 54 54
19 20 22 25 27 28 29 31 32 33 34 34 34 35 33 31 29 30 29 29 32 29 29 29 23 21 19 27 35 37 34 31 38 44 40 43 44 43 46 54 58 57 49
22 24 26 28 29 31 31 32 32 32 33 33 33 33 33 34 33 33 33 33 33 33 36 30 28 28 26 26 29 29 30 38 37 38 37 40 39 38 45 43 45 44 42
27 29 31 32 33 34 34 33 32 31 30 30 31 31 32 32 32 32 33 36 36 37 37 37 37 36 36 35 38 32 32 35 28 37 39 32 33 36 41 40 41 39 36
29 30 30 31 32 32 34 33 33 34 35 34 33 33 32 32 33 33 33 33 33 35 37 39 41 39 38 38 39 42 36 36 38 36 35 33 34 32 31 36 39 36 37
30 31 33 34 35 36 36 35 35 33 33 35 35 35 34 33 33 32 32 32 34 35 35 36 37 39 40 43 42 42 42 43 47 41 40 37 37 37 35 31 30 31 30
34 34 33 33 32 33 32 31 31 31 31 32 33 33 33 35 36 37 37 34 32 34 36 37 37 37 37 39 41 43 45 47 46 45 44 44 42 42 41 37 35 32 27
34 34 35 35 34 34 35 34 34 33 31 31 32 33 34 33 34 36 39 39 36 35 35 36 38 37 38 36 39 42 44 46 49 48 47 50 45 43 41 40 40 33 31
36 35 35 33 32 32 34 34 35 34 33 33 33 33 36 38 38 39 41 42 37 33 36 38 38 38 36 37 37 40 40 45 46 44 44 51 48 48 45 44 43 44 40
35 34 31 31 32 32 31 30 31 34 35 36 37 39 40 39 38 37 39 42 44 39 36 35 37 37 36 37 37 39 39 41 43 45 41 46 47 49 50 47 46 47 46
Wind_Direction
263 263 263 256 248 273 275 267 261 268 270 271 267 263 259 263 263 262 264 266 267 268 274 280 283 285 284 278 271 264 260 256 254 249 241 237 238 240 247 252 261 272 284
260 256 257 253 257 271 267 256 266 263 262 269 270 265 267 267 264 258 259 263 266 266 265 271 277 279 280 279 270 265 261 257 251 248 246 241 238 239 244 252 260 270 277
256 255 248 256 264 268 260 258 256 260 262 263 264 273 268 271 275 275 277 262 264 268 269 263 266 269 273 278 279 268 260 257 253 245 241 241 242 243 245 249 255 264 274
250 251 254 255 255 259 258 256 257 261 262 263 269 273 273 269 265 268 272 270 262 270 266 264 264 263 263 268 269 275 266 258 256 251 244 241 238 241 244 249 254 260 268
253 254 249 250 251 252 253 256 261 262 262 268 274 275 273 270 268 265 261 263 262 267 267 266 264 258 258 263 266 259 264 262 256 253 250 247 246 245 247 249 252 257 262
250 252 250 246 247 249 249 256 259 262 263 270 276 277 277 275 271 266 264 263 263 265 262 263 264 262 260 260 260 255 253 262 259 257 254 252 249 248 248 251 253 256 259
245 246 248 247 248 251 251 258 264 265 263 269 274 275 276 273 272 268 266 266 263 264 266 265 264 261 257 256 257 254 253 257 256 254 256 256 250 248 246 247 252 255 254
248 245 245 249 252 251 253 260 262 262 267 270 277 279 278 273 267 269 266 267 267 266 265 266 265 261 258 255 257 250 256 256 256 252 253 256 249 246 246 248 251 251 249
242 255 244 244 253 258 259 261 264 267 272 274 278 279 279 276 276 272 266 261 262 265 267 265 265 265 259 260 256 254 252 255 254 254 252 253 251 249 246 248 250 247 245
246 249 252 247 250 256 260 262 266 270 273 277 278 274 271 272 273 273 272 268 265 263 264 263 264 262 258 256 257 255 250 250 246 250 252 253 253 249 248 249 251 248 243
244 247 259 255 253 256 263 270 276 278 280 281 284 276 274 268 266 266 269 269 268 265 262 264 264 266 260 255 265 261 246 248 245 248 248 248 253 252 249 249 246 243 240
278 280 275 269 267 268 271 274 279 281 283 283 281 274 268 269 266 266 266 267 268 269 268 267 264 263 261 263 265 256 249 244 243 248 247 247 250 255 251 250 252 248 243
263 268 271 275 273 271 273 276 282 285 281 287 288 274 271 267 267 261 264 267 268 269 270 269 269 265 259 261 252 250 248 247 242 244 240 244 247 244 249 254 249 250 247
289 287 293 291 279 273 274 270 273 293 294 271 271 283 264 260 254 269 263 274 258 264 268 271 266 260 256 260 256 250 261 250 251 258 254 256 251 244 240 247 251 248 252
286 278 275 257 261 270 281 280 289 297 296 296 271 271 272 262 258 243 260 259 271 265 266 266 266 266 267 267 261 256 257 258 261 262 258 258 250 252 247 249 249 251 251
312 307 307 303 291 288 288 288 284 286 290 294 293 292 270 251 232 238 239 247 253 252 253 258 252 249 251 251 249 246 247 262 263 254 255 250 251 246 245 245 248 257 259
299 298 296 296 295 294 294 293 293 292 292 292 291 292 294 296 277 274 273 258 254 264 258 254 253 257 257 258 255 252 250 252 259 251 252 246 239 246 249 252 254 256 258
308 305 303 301 300 298 297 295 294 294 293 293 293 293 293 292 288 285 284 284 269 243 247 243 233 234 244 257 248 252 253 250 250 245 247 247 248 252 255 252 252 254 252
309 307 306 303 301 299 298 297 296 294 294 293 292 291 289 288 285 282 282 279 277 278 276 266 242 244 242 245 247 240 246 246 242 248 248 247 249 251 252 251 248 249 249
309 306 304 302 300 299 297 296 298 298 297 295 293 292 291 289 285 281 278 276 274 272 271 269 267 268 265 258 243 245 231 237 229 233 242 236 245 247 251 251 242 247 250
314 312 309 307 306 304 303 303 300 299 298 298 298 295 291 287 285 284 281 278 275 271 270 268 267 267 266 264 259 254 250 246 236 233 233 243 244 245 251 248 250 251 249
316 315 313 311 308 306 305 304 303 302 300 298 297 298 298 295 291 287 283 280 279 275 271 269 266 264 262 262 261 260 261 262 256 245 241 243 248 250 252 249 257 254 253
317 315 313 312 310 306 303 302 302 302 302 301 300 297 295 296 295 293 290 286 279 277 276 272 269 267 263 260 261 259 258 256 253 253 255 253 254 251 250 247 242 242 234
318 317 315 315 315 313 312 312 311 310 308 304 302 300 299 296 293 289 286 284 283 280 275 273 273 270 268 264 261 258 256 256 254 253 252 251 246 248 245 242 236 237 232
319 318 318 317 316 314 313 312 310 311 313 312 310 309 307 303 298 295 291 288 281 275 276 274 271 270 268 266 262 261 260 259 256 253 251 254 248 246 242 241 238 238 235
319 318 318 317 316 315 314 315 317 317 316 313 312 310 309 306 302 298 293 291 290 286 275 267 269 269 267 264 263 261 259 258 260 257 250 251 250 245 243 238 237 235 235